Home   Weather   Plettenberg   Past weeks

Flag for Germany Past Weather in Plettenberg, North Rhine-Westphalia, Germany — Yesterday and Last 2 Weeks

Now
25 °F

Ice fog.


Feels Like: 17 °F
Forecast: 6 / 26 °F
Wind: 7 mph from East

Location: Dortmund / Wickede

Current Time: Jan 18, 2017 at 12:53:34 am

Latest Report: Jan 17, 2017 at 9:50 pm


Visibility: 2 mi

Pressure: 30.66 "Hg

Humidity: 86%

Dew Point: 21 °F

Location of PlettenbergLocation

Past Weather in Plettenberg — Graph

°F

Plettenberg Temperature Yesterday

Maximum temperature yesterday: 27 °F (at 5:20 am)
Minimum temperature yesterday: 21 °F (at 8:20 am)
Average temperature yesterday: 24 °F

High & Low Weather Summary for the Past Weeks

 TemperatureHumidityPressure
High43 °F (Jan 11, 2:20 pm)100% (Jan 8, 6:20 am)30.72 "Hg (Jan 8, 6:20 am)
Low16 °F (Jan 6, 5:20 am)54% (Jan 6, 3:50 pm)29.06 "Hg (Jan 13, 5:20 am)
Average32 °F82%30.10 "Hg
* Reported Jan 2 9:20 pm — Jan 17 9:50 pm, Plettenberg, Weather by CustomWeather, © 2017

Note: Actual official high and low records may vary slightly from our data, if they occured in-between our weather recording intervals... More about our weather records

Advertising

Plettenberg Weather History for the Previous 24 Hours

Scroll right to see more
 ConditionsComfort  
Time TempWeatherWind HumidityBarometerVisibility
9:50 pm
Tue, Jan 17
25 °FIce fog.7 mph86%30.66 "Hg2 mi
9:20 pm25 °FIce fog.5 mph93%30.66 "Hg2 mi
8:50 pm25 °FIce fog.3 mph86%30.66 "Hg3 mi
8:20 pm25 °FClear.2 mph86%30.66 "Hg4 mi
7:50 pm25 °FPassing clouds.6 mph86%30.66 "Hg4 mi
7:28 pm23 °FPassing clouds.3 mph86%30.66 "Hg4 mi
6:50 pm25 °FPassing clouds.3 mph86%30.63 "HgN/A
6:20 pm25 °FPassing clouds.6 mph86%30.63 "HgN/A
5:50 pm25 °FLow clouds.7 mph86%30.63 "Hg4 mi
5:20 pm25 °FLow clouds.7 mph86%30.63 "Hg4 mi
4:50 pm25 °FIce fog.6 mph86%30.63 "Hg2 mi
4:20 pm23 °FIce fog.7 mph93%30.63 "Hg1 mi
3:50 pm23 °FIce fog.7 mph93%30.63 "Hg1 mi
3:20 pm23 °FIce fog.6 mph93%30.63 "Hg1 mi
2:50 pm23 °FIce fog.5 mph93%30.63 "Hg1 mi
2:20 pm23 °FLight snow. Ice fog.3 mph93%30.63 "Hg2 mi
1:50 pm25 °FIce fog.5 mph86%30.63 "Hg2 mi
1:20 pm25 °FIce fog.5 mph86%30.63 "Hg3 mi
12:50 pm25 °FIce fog.5 mph86%30.63 "Hg3 mi
12:20 pm25 °FPartly sunny.3 mph86%30.63 "Hg4 mi
11:50 am25 °FIce fog.3 mph86%30.63 "Hg3 mi
11:20 am25 °FPartly sunny.3 mph86%30.63 "Hg4 mi
10:50 am25 °FScattered clouds.3 mph86%30.60 "HgN/A
10:20 am25 °FScattered clouds.2 mph86%30.60 "HgN/A
9:50 am23 °FSunny.2 mph93%30.60 "Hg10 mi
9:20 am23 °FSunny.1 mph86%30.60 "Hg10 mi
8:50 am21 °FPassing clouds.2 mph93%30.60 "HgN/A
8:20 am21 °FPassing clouds.3 mph93%30.57 "HgN/A
7:50 am23 °FClear.2 mph86%30.57 "Hg10 mi
7:20 am23 °FClear.2 mph86%30.54 "Hg10 mi
6:50 am23 °FClear.3 mph86%30.54 "Hg10 mi
6:20 am23 °FPassing clouds.5 mph80%30.54 "HgN/A
5:50 am23 °FPassing clouds.5 mph80%30.54 "HgN/A
5:20 am27 °FPassing clouds.5 mph74%30.54 "HgN/A
Weather by CustomWeather, © 2017

See weather overviewHow to use our weather pages